Погода в Танайке

Россия / Республика Татарстан     55°44′30″N   51°54′56″E
темп.,
°C
ветер,
м/с
пор.,
м/с
влажн.,
%
обл.,
%
осадки,
мм/ч
давл.,
гПа
погр.,
м
11 апреля, вс
вс1100:00+3всв2298100 1.2 102513
03:00+3в2297100 1.4 102515
06:00+3юв2399100 0.0 102637
09:00+7ююз1597100 0.0 1027150
12:00+11з3691100 0.0 1028500
15:00+7ссз2299100 0.1 103026
18:00+5с2299100 0.3 103245
21:00+4ссв3398100 1.3 103382
12 апреля, пн
пн1200:00+4св3598100 0.4 1034122
03:00+4св3798100 2.6 1035179
06:00+3св4993100 3.4 1037239
09:00+3всв3986100 4.9 1038259
12:00+4всв3986100 1.8 1038278
15:00+6всв387990 1.8 1038260
18:00+6в2580100 0.0 1038117
21:00+6в398291 0.0 1038181
13 апреля, вт
вт1300:00+5в3488100 0.0 103865
03:00+5в3488100 0.0 103870
06:00+5в2486100 0.0 103788
09:00+10юв347483 0.0 1037258
12:00+15ююв3364100 0.0 1035590
15:00+17ю345679 0.0 1034878
18:00+14ю226761 0.0 103317
21:00+11ю227277 0.0 103312
14 апреля, ср
ср1400:00+9ююз227563 0.0 103216
03:00+7ююз227646 0.0 103213
06:00+7ююз227123 0.0 103233
09:00+12ююз344919 0.0 1031358
12:00+16ююз34375 0.0 1030825
15:00+17юз34345 0.0 10281003
18:00+14юз11505 0.0 102710
21:00+11ююз11565 0.0 102610
15 апреля, чт
чт1500:00+10ю11645 0.0 102610
03:00+8ю11745 0.0 102510
06:00+9ю117436 0.0 102411
09:00+14ююз23595 0.0 1023373
12:00+17юз34505 0.0 10211014
15:00+18юз34480 0.0 10191356
18:00+15юз12620 0.0 101811
21:00+12юз22700 0.0 101710